Regional Weather Roundup
Issued by NWS

Home | Current Version | Previous Version | Graphics & Text | Print | Product List | Glossary On
Versions: 1 2 3 4 5 6 7 8 9 10 11 12 13 14 15 16 17 18 19 20 21 22 23 24 25 26 27 28 29 30 31 32 33 34 35 36 37 38 39 40 41 42 43 44 45 46 47 48 49 50
000
ASUS43 KLSX 232007
RWRMO

WEATHER SUMMARY FOR MISSOURI
NATIONAL WEATHER SERVICE SPRINGFIELD MO
300 PM CDT MON APR 23 2018

NOTE: "FAIR" INDICATES FEW OR NO CLOUDS BELOW 12,000 FEET WITH NO
       SIGNIFICANT WEATHER AND/OR OBSTRUCTIONS TO VISIBILITY.
       CURRENT SKY AND/OR WEATHER CONDITIONS ARE NOT AVAILABLE FOR
       CHILLICOTHE AND FARMINGTON.

MOZ001>031-035>038-043-044-053-054-232100-
...NORTHERN AND WESTERN MISSOURI...

CITY           SKY/WX    TMP DP  RH WIND       PRES   REMARKS
KANSAS CTY INT MOSUNNY   74  32  21 NE14G22   30.05F
KANSAS C DTWN  SUNNY     75  33  21 NE13G23   30.03F
LEE`S SUMMIT   SUNNY     74  32  21 NE15G26   30.03F
ST JOSEPH      SUNNY     75  32  20 NE14G24   30.06F
CHILLICOTHE      N/A     75  34  22 NE12G22   30.04F
KIRKSVILLE     CLOUDY    69  37  30 NE14      30.06S

$$
MOZ066>068-077>081-088>096-101>105-232100-
...SOUTHWEST MISSOURI...

CITY           SKY/WX    TMP DP  RH WIND       PRES   REMARKS
SPRINGFIELD    MOSUNNY   67  45  45 N15G28    29.96S
JOPLIN         SUNNY     71  48  43 N16       30.00F
BRANSON        CLOUDY    64  46  52 NW15G24   29.95R

$$
MOZ032>034-039>042-045>050-055>058-069>072-232100-
...CENTRAL MISSOURI...

CITY           SKY/WX    TMP DP  RH WIND       PRES   REMARKS
COLUMBIA       PTSUNNY   72  42  34 NE21G32   29.97F
JEFFERSON CITY CLOUDY    71  44  37 E18G30    29.96F
ROLLA          CLOUDY    57  50  77 NE14      29.98S
SEDALIA        MOSUNNY   67  37  33 N15       30.01F
WHITEMAN AFB   PTSUNNY   71  33  24 NE14      29.97F
WARRENSBURG    MOSUNNY   73  30  20 N12G20    30.02S
OSAGE BEACH    CLOUDY    68  47  46 NE15G23   29.96F

$$
MOZ051-052-059>065-232100-
...EAST CENTRAL MISSOURI...

CITY           SKY/WX    TMP DP  RH WIND       PRES   REMARKS
ST LOUIS INTL  CLOUDY    58  54  86 NE9       29.99S
SPIRIT OF STL  CLOUDY    58  54  86 NE9       29.98S
ST CHARLES     CLOUDY    59  54  83 NE12      29.98F

$$
MOZ072>076-082>087-097>100-106>115-232100-
...SOUTH CENTRAL AND SOUTHEAST MISSOURI...

CITY           SKY/WX    TMP DP  RH WIND       PRES   REMARKS
CAPE GIRARDEAU PTSUNNY   65  58  78 SE8       29.87F
FARMINGTON     CLOUDY    57  55  93 N9        29.94S
POPLAR BLUFF   CLOUDY    58  55  90 SE6       29.88S
WEST PLAINS    CLOUDY    57  51  80 N14G24    29.93S

$$




USA.gov is the U.S. government's official web portal to all federal, state and local government web resources and services.